| time (UTC) | temp F | wind direction | speed MPH | gust MPH | rain 1hr in | rain 24hr in | rain mn in | humidity % | barometer mb |
| 20260905000029 | 84 | 274 | 1.0 | 5.0 | 0.00 | 0.00 | 0.00 | 27 | 998.1 |
| 20260904234530 | 84 | 124 | 2.0 | 7.0 | 0.00 | 0.00 | 0.00 | 26 | 998.0 |
| 20260904233016 | 85 | 175 | 1.0 | 4.0 | 0.00 | 0.00 | 0.00 | 27 | 997.9 |
| 20260904231513 | 86 | 132 | 2.0 | 9.0 | 0.00 | 0.00 | 0.00 | 24 | 997.8 |
| 20260904230027 | 87 | 54 | 3.0 | 8.0 | 0.00 | 0.00 | 0.00 | 24 | 997.8 |
| 20260904224520 | 86 | 75 | 1.0 | 8.0 | 0.00 | 0.00 | 0.00 | 24 | 997.9 |
| 20260904223020 | 87 | 134 | 3.0 | 8.0 | 0.00 | 0.00 | 0.00 | 25 | 997.9 |
| 20260904221513 | 87 | 254 | 2.0 | 6.0 | 0.00 | 0.00 | 0.00 | 24 | 998.0 |
| 20260904220056 | 88 | 91 | 2.0 | 8.0 | 0.00 | 0.00 | 0.00 | 25 | 998.0 |
| 20260904214524 | 87 | 185 | 1.0 | 7.0 | 0.00 | 0.00 | 0.00 | 24 | 998.2 |
| 20260904213018 | 89 | 173 | 2.0 | 5.0 | 0.00 | 0.00 | 0.00 | 24 | 998.3 |
| 20260904211516 | 86 | 229 | 0.0 | 4.0 | 0.00 | 0.00 | 0.00 | 26 | 998.4 |
| 20260904210017 | 89 | 171 | 2.0 | 9.0 | 0.00 | 0.00 | 0.00 | 24 | 998.6 |
| 20260904204527 | 90 | 210 | 2.0 | 5.0 | 0.00 | 0.00 | 0.00 | 23 | 998.8 |
| 20260904203034 | 90 | 253 | 2.0 | 7.0 | 0.00 | 0.00 | 0.00 | 24 | 998.9 |
| 20260904201517 | 88 | 123 | 1.0 | 4.0 | 0.00 | 0.00 | 0.00 | 23 | 999.1 |
| 20260904200020 | 92 | 242 | 1.0 | 9.0 | 0.00 | 0.00 | 0.00 | 24 | 999.2 |
| 20260904194546 | 92 | 167 | 4.0 | 10.0 | 0.00 | 0.00 | 0.00 | 23 | 999.2 |
| 20260904193023 | 93 | 333 | 2.0 | 8.0 | 0.00 | 0.00 | 0.00 | 22 | 999.5 |
| 20260904191528 | 93 | 46 | 2.0 | 7.0 | 0.00 | 0.00 | 0.00 | 23 | 999.7 |
| 20260904190033 | 91 | 114 | 0.0 | 5.0 | 0.00 | 0.00 | 0.00 | 25 | 999.8 |
| 20260904184525 | 90 | 320 | 1.0 | 7.0 | 0.00 | 0.00 | 0.00 | 28 | 1000.1 |
| 20260904183027 | 90 | 315 | 4.0 | 9.0 | 0.00 | 0.00 | 0.00 | 23 | 1000.2 |
| 20260904181517 | 87 | 180 | 1.0 | 8.0 | 0.00 | 0.00 | 0.00 | 27 | 1000.6 |
| 20260904180012 | 89 | 273 | 2.0 | 6.0 | 0.00 | 0.00 | 0.00 | 24 | 1000.7 |
| 20260904174556 | 87 | 256 | 2.0 | 6.0 | 0.00 | 0.00 | 0.00 | 22 | 1000.9 |
| 20260904173027 | 88 | 39 | 1.0 | 6.0 | 0.00 | 0.00 | 0.00 | 24 | 1001.0 |
| 20260904171523 | 86 | 48 | 1.0 | 3.0 | 0.00 | 0.00 | 0.00 | 28 | 1001.0 |
| 20260904170022 | 84 | 167 | 2.0 | 4.0 | 0.00 | 0.00 | 0.00 | 24 | 1001.1 |
| 20260904164532 | 84 | 163 | 3.0 | 6.0 | 0.00 | 0.00 | 0.00 | 24 | 1001.2 |
| 20260904163036 | 84 | 308 | 2.0 | 6.0 | 0.00 | 0.00 | 0.00 | 25 | 1001.3 |
| 20260904161527 | 82 | 271 | 4.0 | 7.0 | 0.00 | 0.00 | 0.00 | 27 | 1001.4 |
| 20260904160023 | 81 | 172 | 1.0 | 3.0 | 0.00 | 0.00 | 0.00 | 26 | 1001.5 |
| 20260904154518 | 79 | 154 | 1.0 | 3.0 | 0.00 | 0.00 | 0.00 | 27 | 1001.5 |
| 20260904153042 | 78 | 200 | 1.0 | 6.0 | 0.00 | 0.00 | 0.00 | 30 | 1001.6 |
| 20260904151527 | 76 | 164 | 1.0 | 5.0 | 0.00 | 0.00 | 0.00 | 32 | 1001.5 |
| 20260904150024 | 74 | 163 | 1.0 | 5.0 | 0.00 | 0.00 | 0.00 | 31 | 1001.5 |
| 20260904144558 | 72 | 180 | 1.0 | 3.0 | 0.00 | 0.00 | 0.00 | 33 | 1001.4 |
| 20260904143037 | 70 | 169 | 1.0 | 2.0 | 0.00 | 0.00 | 0.00 | 35 | 1001.5 |
| 20260904141530 | 69 | 215 | 0.0 | 3.0 | 0.00 | 0.00 | 0.00 | 38 | 1001.5 |
| 20260904140027 | 68 | 180 | 0.0 | 3.0 | 0.00 | 0.00 | 0.00 | 37 | 1001.2 |
| 20260904134523 | 66 | 174 | 0.0 | 2.0 | 0.00 | 0.00 | 0.00 | 39 | 1001.2 |
| 20260904133107 | 63 | 23 | 0.0 | 2.0 | 0.00 | 0.00 | 0.00 | 46 | 1001.2 |
| 20260904131533 | 64 | 96 | 0.0 | 2.0 | 0.00 | 0.00 | 0.00 | 41 | 1000.8 |
| 20260904130026 | 62 | 261 | 0.0 | 1.0 | 0.00 | 0.00 | 0.00 | 42 | 1000.5 |
| 20260904124516 | 61 | 297 | 0.0 | 1.0 | 0.00 | 0.00 | 0.00 | 45 | 1000.5 |
| 20260904123038 | 59 | 297 | 0.0 | 2.0 | 0.00 | 0.00 | 0.00 | 49 | 1000.4 |
| 20260904121524 | 60 | 285 | 0.0 | 0.0 | 0.00 | 0.00 | 0.00 | 47 | 1000.5 |
| 20260904120024 | 60 | 285 | 0.0 | 0.0 | 0.00 | 0.00 | 0.00 | 46 | 1000.2 |
| 20260904114517 | 60 | 285 | 0.0 | 0.0 | 0.00 | 0.00 | 0.00 | 46 | 1000.1 |
| 20260904113044 | 61 | 285 | 0.0 | 0.0 | 0.00 | 0.00 | 0.00 | 44 | 999.9 |
| 20260904111522 | 63 | 285 | 0.0 | 2.0 | 0.00 | 0.00 | 0.00 | 40 | 999.9 |
| 20260904110034 | 64 | 283 | 2.0 | 6.0 | 0.00 | 0.00 | 0.00 | 40 | 999.8 |
| 20260904104515 | 63 | 281 | 1.0 | 4.0 | 0.00 | 0.00 | 0.00 | 43 | 999.6 |
| 20260904103017 | 63 | 288 | 0.0 | 2.0 | 0.00 | 0.00 | 0.00 | 45 | 999.3 |
| 20260904101527 | 63 | 286 | 0.0 | 2.0 | 0.00 | 0.00 | 0.00 | 43 | 999.0 |
| 20260904100021 | 64 | 281 | 0.0 | 3.0 | 0.00 | 0.00 | 0.00 | 47 | 998.9 |
| 20260904094520 | 64 | 279 | 0.0 | 2.0 | 0.00 | 0.00 | 0.00 | 49 | 998.6 |
| 20260904093013 | 64 | 246 | 0.0 | 1.0 | 0.00 | 0.00 | 0.00 | 50 | 998.6 |
| 20260904091527 | 64 | 212 | 0.0 | 1.0 | 0.00 | 0.00 | 0.00 | 50 | 998.5 |
| 20260904090025 | 63 | 224 | 0.0 | 1.0 | 0.00 | 0.00 | 0.00 | 52 | 998.3 |
| 20260904084520 | 64 | 233 | 0.0 | 1.0 | 0.00 | 0.00 | 0.00 | 53 | 998.3 |
| 20260904083031 | 65 | 158 | 0.0 | 2.0 | 0.00 | 0.00 | 0.00 | 57 | 998.2 |
| 20260904081528 | 66 | 247 | 0.0 | 1.0 | 0.00 | 0.00 | 0.00 | 51 | 998.2 |
| 20260904080023 | 68 | 214 | 0.0 | 3.0 | 0.00 | 0.00 | 0.00 | 46 | 998.3 |
| 20260904074518 | 69 | 231 | 0.0 | 2.0 | 0.00 | 0.00 | 0.00 | 44 | 998.3 |
| 20260904073029 | 70 | 194 | 1.0 | 4.0 | 0.00 | 0.00 | 0.00 | 44 | 998.4 |
| 20260904071557 | 70 | 211 | 1.0 | 5.0 | 0.00 | 0.00 | 0.00 | 43 | 998.5 |
| 20260904070041 | 70 | 227 | 1.0 | 5.0 | 0.00 | 0.00 | 0.00 | 43 | 998.9 |
| 20260904064518 | 71 | 190 | 0.0 | 3.0 | 0.00 | 0.00 | 0.00 | 41 | 998.9 |
| 20260904063015 | 71 | 154 | 1.0 | 4.0 | 0.00 | 0.00 | 0.00 | 40 | 998.9 |
| 20260904061540 | 72 | 317 | 1.0 | 4.0 | 0.00 | 0.00 | 0.00 | 40 | 999.1 |
| 20260904060023 | 72 | 202 | 1.0 | 3.0 | 0.00 | 0.00 | 0.00 | 39 | 999.2 |
| 20260904054530 | 73 | 164 | 1.0 | 6.0 | 0.00 | 0.00 | 0.00 | 38 | 999.3 |
| 20260904053015 | 73 | 164 | 1.0 | 8.0 | 0.00 | 0.00 | 0.00 | 37 | 999.4 |
| 20260904051531 | 74 | 190 | 1.0 | 3.0 | 0.00 | 0.00 | 0.00 | 36 | 999.6 |
| 20260904050024 | 75 | 242 | 1.0 | 6.0 | 0.00 | 0.00 | 0.00 | 35 | 999.8 |
| 20260904044527 | 75 | 236 | 1.0 | 6.0 | 0.00 | 0.00 | 0.00 | 33 | 1000.1 |
| 20260904043031 | 74 | 171 | 2.0 | 6.0 | 0.00 | 0.00 | 0.00 | 32 | 1000.1 |
| 20260904041527 | 71 | 263 | 0.0 | 2.0 | 0.00 | 0.00 | 0.00 | 34 | 999.9 |
| 20260904040022 | 72 | 267 | 0.0 | 2.0 | 0.00 | 0.00 | 0.00 | 32 | 999.8 |
| 20260904034538 | 74 | 180 | 0.0 | 3.0 | 0.00 | 0.00 | 0.00 | 29 | 999.6 |
| 20260904033015 | 75 | 171 | 0.0 | 3.0 | 0.00 | 0.00 | 0.00 | 28 | 999.4 |
| 20260904031528 | 75 | 277 | 1.0 | 3.0 | 0.00 | 0.00 | 0.00 | 28 | 999.2 |
| 20260904030025 | 76 | 250 | 0.0 | 4.0 | 0.00 | 0.00 | 0.00 | 28 | 999.1 |
| 20260904024519 | 75 | 119 | 0.0 | 2.0 | 0.00 | 0.00 | 0.00 | 28 | 998.9 |
| 20260904023012 | 75 | 280 | 1.0 | 3.0 | 0.00 | 0.00 | 0.00 | 28 | 998.8 |
| 20260904021529 | 78 | 267 | 1.0 | 4.0 | 0.00 | 0.00 | 0.00 | 26 | 998.4 |
| 20260904020023 | 79 | 217 | 3.0 | 8.0 | 0.00 | 0.00 | 0.00 | 24 | 998.0 |
| 20260904014518 | 80 | 204 | 2.0 | 5.0 | 0.00 | 0.00 | 0.00 | 24 | 997.8 |
| 20260904013015 | 81 | 190 | 2.0 | 6.0 | 0.00 | 0.00 | 0.00 | 23 | 997.5 |
| 20260904011554 | 82 | 215 | 3.0 | 9.0 | 0.00 | 0.00 | 0.00 | 22 | 997.5 |
| 20260904010027 | 83 | 194 | 3.0 | 10.0 | 0.00 | 0.00 | 0.00 | 21 | 997.6 |
| 20260904004521 | 83 | 222 | 5.0 | 10.0 | 0.00 | 0.00 | 0.00 | 21 | 997.8 |
| 20260904003054 | 84 | 144 | 3.0 | 8.0 | 0.00 | 0.00 | 0.00 | 22 | 997.9 |
| 20260904001529 | 85 | 190 | 3.0 | 9.0 | 0.00 | 0.00 | 0.00 | 21 | 997.9 |